Year,Month,Day,Hour,Minute,Value (Times are PST for temperature in C)
2015,06,30,00,00,20.80
2015,06,30,00,01,20.80
2015,06,30,00,02,20.80
2015,06,30,00,03,20.70
2015,06,30,00,04,20.70
2015,06,30,00,05,20.70
2015,06,30,00,06,20.70
2015,06,30,00,07,20.70
2015,06,30,00,08,20.70
2015,06,30,00,09,20.70
2015,06,30,00,10,20.60
2015,06,30,00,11,20.60
2015,06,30,00,12,20.60
2015,06,30,00,13,20.60
2015,06,30,00,14,20.60
2015,06,30,00,15,20.60
2015,06,30,00,16,20.60
2015,06,30,00,17,20.60
2015,06,30,00,18,20.50
2015,06,30,00,19,20.50
2015,06,30,00,20,20.50
2015,06,30,00,21,20.50
2015,06,30,00,22,20.50
2015,06,30,00,23,20.40
2015,06,30,00,24,20.40
2015,06,30,00,25,20.40
2015,06,30,00,26,20.40
2015,06,30,00,27,20.40
2015,06,30,00,28,20.40
2015,06,30,00,29,20.40
2015,06,30,00,30,20.40
2015,06,30,00,31,20.40
2015,06,30,00,32,20.40
2015,06,30,00,33,20.40
2015,06,30,00,34,20.40
2015,06,30,00,35,20.40
2015,06,30,00,36,20.40
2015,06,30,00,37,20.40
2015,06,30,00,38,20.40
2015,06,30,00,39,20.40
2015,06,30,00,40,20.40
2015,06,30,00,41,20.40
2015,06,30,00,42,20.40
2015,06,30,00,43,20.30
2015,06,30,00,44,20.30
2015,06,30,00,45,20.30
2015,06,30,00,46,20.30
2015,06,30,00,47,20.30
2015,06,30,00,48,20.30
2015,06,30,00,49,20.20
2015,06,30,00,50,20.20
2015,06,30,00,51,20.20
2015,06,30,00,52,20.20
2015,06,30,00,53,20.20
2015,06,30,00,54,20.10
2015,06,30,00,55,20.10
2015,06,30,00,56,20.10
2015,06,30,00,57,20.10
2015,06,30,00,58,20.10
2015,06,30,00,59,20.00
2015,06,30,01,00,20.00
2015,06,30,01,01,20.00
2015,06,30,01,02,20.00
2015,06,30,01,03,20.00
2015,06,30,01,04,20.00
2015,06,30,01,05,19.90
2015,06,30,01,06,19.90
2015,06,30,01,07,19.90
2015,06,30,01,08,19.90
2015,06,30,01,09,19.90
2015,06,30,01,10,19.90
2015,06,30,01,11,19.80
2015,06,30,01,12,19.80
2015,06,30,01,13,19.80
2015,06,30,01,14,19.80
2015,06,30,01,15,19.80
2015,06,30,01,16,19.80
2015,06,30,01,17,19.80
2015,06,30,01,18,19.80
2015,06,30,01,19,19.80
2015,06,30,01,20,19.80
2015,06,30,01,21,19.80
2015,06,30,01,22,19.80
2015,06,30,01,23,19.80
2015,06,30,01,24,19.80
2015,06,30,01,25,19.80
2015,06,30,01,26,19.80
2015,06,30,01,27,19.80
2015,06,30,01,28,19.80
2015,06,30,01,29,19.80
2015,06,30,01,30,19.80
2015,06,30,01,31,19.80
2015,06,30,01,32,19.80
2015,06,30,01,33,19.80
2015,06,30,01,34,19.80
2015,06,30,01,35,19.80
2015,06,30,01,36,19.80
2015,06,30,01,37,19.70
2015,06,30,01,38,19.70
2015,06,30,01,39,19.70
2015,06,30,01,40,19.70
2015,06,30,01,41,19.70
2015,06,30,01,42,19.70
2015,06,30,01,43,19.70
2015,06,30,01,44,19.60
2015,06,30,01,45,19.60
2015,06,30,01,46,19.60
2015,06,30,01,47,19.60
2015,06,30,01,48,19.60
2015,06,30,01,49,19.60
2015,06,30,01,50,19.50
2015,06,30,01,51,19.50
2015,06,30,01,52,19.50
2015,06,30,01,53,19.50
2015,06,30,01,54,19.50
2015,06,30,01,55,19.50
2015,06,30,01,56,19.50
2015,06,30,01,57,19.50
2015,06,30,01,58,19.50
2015,06,30,01,59,19.40
2015,06,30,02,00,19.40
2015,06,30,02,01,19.40
2015,06,30,02,02,19.40
2015,06,30,02,03,19.40
2015,06,30,02,04,19.40
2015,06,30,02,05,19.40
2015,06,30,02,06,19.40
2015,06,30,02,07,19.40
2015,06,30,02,08,19.40
2015,06,30,02,09,19.40
2015,06,30,02,10,19.30
2015,06,30,02,11,19.30
2015,06,30,02,12,19.30
2015,06,30,02,13,19.30
2015,06,30,02,14,19.30
2015,06,30,02,15,19.30
2015,06,30,02,16,19.30
2015,06,30,02,17,19.20
2015,06,30,02,18,19.20
2015,06,30,02,19,19.20
2015,06,30,02,20,19.20
2015,06,30,02,21,19.20
2015,06,30,02,22,19.20
2015,06,30,02,23,19.10
2015,06,30,02,24,19.10
2015,06,30,02,25,19.10
2015,06,30,02,26,19.10
2015,06,30,02,27,19.10
2015,06,30,02,28,19.00
2015,06,30,02,29,19.00
2015,06,30,02,30,19.00
2015,06,30,02,31,18.90
2015,06,30,02,32,18.90
2015,06,30,02,33,18.90
2015,06,30,02,34,18.90
2015,06,30,02,35,18.80
2015,06,30,02,36,18.80
2015,06,30,02,37,18.80
2015,06,30,02,38,18.80
2015,06,30,02,39,18.70
2015,06,30,02,40,18.70
2015,06,30,02,41,18.70
2015,06,30,02,42,18.70
2015,06,30,02,43,18.70
2015,06,30,02,44,18.60
2015,06,30,02,45,18.60
2015,06,30,02,46,18.60
2015,06,30,02,47,18.60
2015,06,30,02,48,18.60
2015,06,30,02,49,18.50
2015,06,30,02,50,18.50
2015,06,30,02,51,18.50
2015,06,30,02,52,18.50
2015,06,30,02,53,18.40
2015,06,30,02,54,18.40
2015,06,30,02,55,18.40
2015,06,30,02,56,18.50
2015,06,30,02,57,18.50
2015,06,30,02,58,18.50
2015,06,30,02,59,18.60
2015,06,30,03,00,18.60
2015,06,30,03,01,18.60
2015,06,30,03,02,18.60
2015,06,30,03,03,18.60
2015,06,30,03,04,18.60
2015,06,30,03,05,18.60
2015,06,30,03,06,18.60
2015,06,30,03,07,18.60
2015,06,30,03,08,18.50
2015,06,30,03,09,18.50
2015,06,30,03,10,18.50
2015,06,30,03,11,18.40
2015,06,30,03,12,18.40
2015,06,30,03,13,18.40
2015,06,30,03,14,18.40
2015,06,30,03,15,18.30
2015,06,30,03,16,18.30
2015,06,30,03,17,18.30
2015,06,30,03,18,18.30
2015,06,30,03,19,18.30
2015,06,30,03,20,18.30
2015,06,30,03,21,18.20
2015,06,30,03,22,18.20
2015,06,30,03,23,18.20
2015,06,30,03,24,18.20
2015,06,30,03,25,18.20
2015,06,30,03,26,18.20
2015,06,30,03,27,18.20
2015,06,30,03,28,18.20
2015,06,30,03,29,18.20
2015,06,30,03,30,18.20
2015,06,30,03,31,18.20
2015,06,30,03,32,18.20
2015,06,30,03,33,18.20
2015,06,30,03,34,18.20
2015,06,30,03,35,18.20
2015,06,30,03,36,18.20
2015,06,30,03,37,18.20
2015,06,30,03,38,18.20
2015,06,30,03,39,18.20
2015,06,30,03,40,18.20
2015,06,30,03,41,18.20
2015,06,30,03,42,18.20
2015,06,30,03,43,18.20
2015,06,30,03,44,18.10
2015,06,30,03,45,18.10
2015,06,30,03,46,18.10
2015,06,30,03,47,18.10
2015,06,30,03,48,18.10
2015,06,30,03,49,18.10
2015,06,30,03,50,18.10
2015,06,30,03,51,18.00
2015,06,30,03,52,18.00
2015,06,30,03,53,18.00
2015,06,30,03,54,17.90
2015,06,30,03,55,17.90
2015,06,30,03,56,17.90
2015,06,30,03,57,17.80
2015,06,30,03,58,17.80
2015,06,30,03,59,17.80
2015,06,30,04,00,17.80
2015,06,30,04,01,17.80
2015,06,30,04,02,17.80
2015,06,30,04,03,17.70
2015,06,30,04,04,17.70
2015,06,30,04,05,17.70
2015,06,30,04,06,17.70
2015,06,30,04,07,17.70
2015,06,30,04,08,17.70
2015,06,30,04,09,17.70
2015,06,30,04,10,17.70
2015,06,30,04,11,17.70
2015,06,30,04,12,17.70
2015,06,30,04,13,17.60
2015,06,30,04,14,17.60
2015,06,30,04,15,17.70
2015,06,30,04,16,17.60
2015,06,30,04,17,17.60
2015,06,30,04,18,17.60
2015,06,30,04,19,17.60
2015,06,30,04,20,17.60
2015,06,30,04,21,17.60
2015,06,30,04,22,17.60
2015,06,30,04,23,17.60
2015,06,30,04,24,17.60
2015,06,30,04,25,17.50
2015,06,30,04,26,17.50
2015,06,30,04,27,17.50
2015,06,30,04,28,17.50
2015,06,30,04,29,17.40
2015,06,30,04,30,17.40
2015,06,30,04,31,17.40
2015,06,30,04,32,17.40
2015,06,30,04,33,17.30
2015,06,30,04,34,17.30
2015,06,30,04,35,17.30
2015,06,30,04,36,17.30
2015,06,30,04,37,17.30
2015,06,30,04,38,17.30
2015,06,30,04,39,17.30
2015,06,30,04,40,17.30
2015,06,30,04,41,17.30
2015,06,30,04,42,17.20
2015,06,30,04,43,17.30
2015,06,30,04,44,17.20
2015,06,30,04,45,17.20
2015,06,30,04,46,17.20
2015,06,30,04,47,17.20
2015,06,30,04,48,17.20
2015,06,30,04,49,17.20
2015,06,30,04,50,17.20
2015,06,30,04,51,17.20
2015,06,30,04,52,17.20
2015,06,30,04,53,17.20
2015,06,30,04,54,17.10
2015,06,30,04,55,17.10
2015,06,30,04,56,17.10
2015,06,30,04,57,17.10
2015,06,30,04,58,17.10
2015,06,30,04,59,17.10
2015,06,30,05,00,17.10
2015,06,30,05,01,17.10
2015,06,30,05,02,17.00
2015,06,30,05,03,17.00
2015,06,30,05,04,17.00
2015,06,30,05,05,17.00
2015,06,30,05,06,17.00
2015,06,30,05,07,17.00
2015,06,30,05,08,16.90
2015,06,30,05,09,16.90
2015,06,30,05,10,16.90
2015,06,30,05,11,16.90
2015,06,30,05,12,16.90
2015,06,30,05,13,16.90
2015,06,30,05,14,16.90
2015,06,30,05,15,16.80
2015,06,30,05,16,16.80
2015,06,30,05,17,16.80
2015,06,30,05,18,16.80
2015,06,30,05,19,16.80
2015,06,30,05,20,16.80
2015,06,30,05,21,16.80
2015,06,30,05,22,16.70
2015,06,30,05,23,16.70
2015,06,30,05,24,16.70
2015,06,30,05,25,16.70
2015,06,30,05,26,16.70
2015,06,30,05,27,16.70
2015,06,30,05,28,16.70
2015,06,30,05,29,16.70
2015,06,30,05,30,16.70
2015,06,30,05,31,16.70
2015,06,30,05,32,16.70
2015,06,30,05,33,16.70
2015,06,30,05,34,16.70
2015,06,30,05,35,16.70
2015,06,30,05,36,16.70
2015,06,30,05,37,16.70
2015,06,30,05,38,16.70
2015,06,30,05,39,16.70
2015,06,30,05,40,16.70
2015,06,30,05,41,16.70
2015,06,30,05,42,16.60
2015,06,30,05,43,16.60
2015,06,30,05,44,16.60
2015,06,30,05,45,16.60
2015,06,30,05,46,16.60
2015,06,30,05,47,16.60
2015,06,30,05,48,16.60
2015,06,30,05,49,16.60
2015,06,30,05,50,16.60
2015,06,30,05,51,16.60
2015,06,30,05,52,16.60
2015,06,30,05,53,16.60
2015,06,30,05,54,16.60
2015,06,30,05,55,16.60
2015,06,30,05,56,16.60
2015,06,30,05,57,16.60
2015,06,30,05,58,16.60
2015,06,30,05,59,16.60
2015,06,30,06,00,16.60
2015,06,30,06,01,16.50
2015,06,30,06,02,16.50
2015,06,30,06,03,16.50
2015,06,30,06,04,16.50
2015,06,30,06,05,16.50
2015,06,30,06,06,16.50
2015,06,30,06,07,16.50
2015,06,30,06,08,16.50
2015,06,30,06,09,16.40
2015,06,30,06,10,16.40
2015,06,30,06,11,16.40
2015,06,30,06,12,16.40
2015,06,30,06,13,16.40
2015,06,30,06,14,16.40
2015,06,30,06,15,16.40
2015,06,30,06,16,16.40
2015,06,30,06,17,16.40
2015,06,30,06,18,16.40
2015,06,30,06,19,16.30
2015,06,30,06,20,16.30
2015,06,30,06,21,16.30
2015,06,30,06,22,16.30
2015,06,30,06,23,16.30
2015,06,30,06,24,16.30
2015,06,30,06,25,16.30
2015,06,30,06,26,16.30
2015,06,30,06,27,16.30
2015,06,30,06,28,16.30
2015,06,30,06,29,16.30
2015,06,30,06,30,16.30
2015,06,30,06,31,16.20
2015,06,30,06,32,16.20
2015,06,30,06,33,16.20
2015,06,30,06,34,16.20
2015,06,30,06,35,16.20
2015,06,30,06,36,16.20
2015,06,30,06,37,16.20
2015,06,30,06,38,16.20
2015,06,30,06,39,16.20
2015,06,30,06,40,16.20
2015,06,30,06,41,16.20
2015,06,30,06,42,16.30
2015,06,30,06,43,16.30
2015,06,30,06,44,16.30
2015,06,30,06,45,16.30
2015,06,30,06,46,16.30
2015,06,30,06,47,16.30
2015,06,30,06,48,16.30
2015,06,30,06,49,16.30
2015,06,30,06,50,16.30
2015,06,30,06,51,16.30
2015,06,30,06,52,16.30
2015,06,30,06,53,16.30
2015,06,30,06,54,16.30
2015,06,30,06,55,16.30
2015,06,30,06,56,16.30
2015,06,30,06,57,16.30
2015,06,30,06,58,16.30
2015,06,30,06,59,16.30
2015,06,30,07,00,16.30
2015,06,30,07,01,16.30
2015,06,30,07,02,16.30
2015,06,30,07,03,16.30
2015,06,30,07,04,16.30
2015,06,30,07,05,16.30
2015,06,30,07,06,16.30
2015,06,30,07,07,16.30
2015,06,30,07,08,16.30
2015,06,30,07,09,16.30
2015,06,30,07,10,16.30
2015,06,30,07,11,16.30
2015,06,30,07,12,16.30
2015,06,30,07,13,16.30
2015,06,30,07,14,16.30
2015,06,30,07,15,16.30
2015,06,30,07,16,16.30
2015,06,30,07,17,16.30
2015,06,30,07,18,16.30
2015,06,30,07,19,16.30
2015,06,30,07,20,16.30
2015,06,30,07,21,16.40
2015,06,30,07,22,16.40
2015,06,30,07,23,16.40
2015,06,30,07,24,16.40
2015,06,30,07,25,16.40
2015,06,30,07,26,16.40
2015,06,30,07,27,16.40
2015,06,30,07,28,16.40
2015,06,30,07,29,16.40
2015,06,30,07,30,16.40
2015,06,30,07,31,16.50
2015,06,30,07,32,16.50
2015,06,30,07,33,16.50
2015,06,30,07,34,16.50
2015,06,30,07,35,16.50
2015,06,30,07,36,16.50
2015,06,30,07,37,16.60
2015,06,30,07,38,16.60
2015,06,30,07,39,16.60
2015,06,30,07,40,16.60
2015,06,30,07,41,16.60
2015,06,30,07,42,16.60
2015,06,30,07,43,16.60
2015,06,30,07,44,16.70
2015,06,30,07,45,16.70
2015,06,30,07,46,16.70
2015,06,30,07,47,16.70
2015,06,30,07,48,16.70
2015,06,30,07,49,16.80
2015,06,30,07,50,16.80
2015,06,30,07,51,16.80
2015,06,30,07,52,16.80
2015,06,30,07,53,16.80
2015,06,30,07,54,16.90
2015,06,30,07,55,16.90
2015,06,30,07,56,16.90
2015,06,30,07,57,16.90
2015,06,30,07,58,16.90
2015,06,30,07,59,16.90
2015,06,30,08,00,17.00
2015,06,30,08,01,17.00
2015,06,30,08,02,17.10
2015,06,30,08,03,17.10
2015,06,30,08,04,17.10
2015,06,30,08,05,17.10
2015,06,30,08,06,17.10
2015,06,30,08,07,17.20
2015,06,30,08,08,17.20
2015,06,30,08,09,17.20
2015,06,30,08,10,17.30
2015,06,30,08,11,17.30
2015,06,30,08,12,17.30
2015,06,30,08,13,17.40
2015,06,30,08,14,17.40
2015,06,30,08,15,17.50
2015,06,30,08,16,17.50
2015,06,30,08,17,17.60
2015,06,30,08,18,17.60
2015,06,30,08,19,17.60
2015,06,30,08,20,17.70
2015,06,30,08,21,17.70
2015,06,30,08,22,17.70
2015,06,30,08,23,17.80
2015,06,30,08,24,17.80
2015,06,30,08,25,17.80
2015,06,30,08,26,17.80
2015,06,30,08,27,17.80
2015,06,30,08,28,17.90
2015,06,30,08,29,17.90
2015,06,30,08,30,17.90
2015,06,30,08,31,17.90
2015,06,30,08,32,17.90
2015,06,30,08,33,18.00
2015,06,30,08,34,18.00
2015,06,30,08,35,18.10
2015,06,30,08,36,18.10
2015,06,30,08,37,18.20
2015,06,30,08,38,18.20
2015,06,30,08,39,18.30
2015,06,30,08,40,18.30
2015,06,30,08,41,18.30
2015,06,30,08,42,18.40
2015,06,30,08,43,18.40
2015,06,30,08,44,18.50
2015,06,30,08,45,18.50
2015,06,30,08,46,18.60
2015,06,30,08,47,18.60
2015,06,30,08,48,18.60
2015,06,30,08,49,18.70
2015,06,30,08,50,18.70
2015,06,30,08,51,18.80
2015,06,30,08,52,18.80
2015,06,30,08,53,18.80
2015,06,30,08,54,18.80
2015,06,30,08,55,18.90
2015,06,30,08,56,18.90
2015,06,30,08,57,18.90
2015,06,30,08,58,19.00
2015,06,30,08,59,19.00
2015,06,30,09,00,19.10
2015,06,30,09,01,19.10
2015,06,30,09,02,19.10
2015,06,30,09,03,19.20
2015,06,30,09,04,19.20
2015,06,30,09,05,19.20
2015,06,30,09,06,19.30
2015,06,30,09,07,19.30
2015,06,30,09,08,19.40
2015,06,30,09,09,19.40
2015,06,30,09,10,19.50
2015,06,30,09,11,19.50
2015,06,30,09,12,19.60
2015,06,30,09,13,19.70
2015,06,30,09,14,19.70
2015,06,30,09,15,19.80
2015,06,30,09,16,19.80
2015,06,30,09,17,19.90
2015,06,30,09,18,19.90
2015,06,30,09,19,20.00
2015,06,30,09,20,20.00
2015,06,30,09,21,20.10
2015,06,30,09,22,20.10
2015,06,30,09,23,20.20
2015,06,30,09,24,20.40
2015,06,30,09,25,20.50
2015,06,30,09,26,20.60
2015,06,30,09,27,20.70
2015,06,30,09,28,20.80
2015,06,30,09,29,20.90
2015,06,30,09,30,21.00
2015,06,30,09,31,21.10
2015,06,30,09,32,21.30
2015,06,30,09,33,21.40
2015,06,30,09,34,21.60
2015,06,30,09,35,21.70
2015,06,30,09,36,21.90
2015,06,30,09,37,22.10
2015,06,30,09,38,22.20
2015,06,30,09,39,22.30
2015,06,30,09,40,22.50
2015,06,30,09,41,22.60
2015,06,30,09,42,22.70
2015,06,30,09,43,22.80
2015,06,30,09,44,22.90
2015,06,30,09,45,23.00
2015,06,30,09,46,23.10
2015,06,30,09,47,23.20
2015,06,30,09,48,23.30
2015,06,30,09,49,23.40
2015,06,30,09,50,23.40
2015,06,30,09,51,23.50
2015,06,30,09,52,23.60
2015,06,30,09,53,23.70
2015,06,30,09,54,23.80
2015,06,30,09,55,23.90
2015,06,30,09,56,24.10
2015,06,30,09,57,24.10
2015,06,30,09,58,24.20
2015,06,30,09,59,24.30
2015,06,30,10,00,24.30
2015,06,30,10,01,24.30
2015,06,30,10,02,24.40
2015,06,30,10,03,24.40
2015,06,30,10,04,24.50
2015,06,30,10,05,24.60
2015,06,30,10,06,24.60
2015,06,30,10,07,24.70
2015,06,30,10,08,24.70
2015,06,30,10,09,24.70
2015,06,30,10,10,24.70
2015,06,30,10,11,24.70
2015,06,30,10,12,24.70
2015,06,30,10,13,24.70
2015,06,30,10,14,24.70
2015,06,30,10,15,24.70
2015,06,30,10,16,24.70
2015,06,30,10,17,24.70
2015,06,30,10,18,24.60
2015,06,30,10,19,24.60
2015,06,30,10,20,24.60
2015,06,30,10,21,24.60
2015,06,30,10,22,24.50
2015,06,30,10,23,24.50
2015,06,30,10,24,24.50
2015,06,30,10,25,24.50
2015,06,30,10,26,24.50
2015,06,30,10,27,24.50
2015,06,30,10,28,24.50
2015,06,30,10,29,24.50
2015,06,30,10,30,24.50
2015,06,30,10,31,24.50
2015,06,30,10,32,24.50
2015,06,30,10,33,24.50
2015,06,30,10,34,24.50
2015,06,30,10,35,24.50
2015,06,30,10,36,24.50
2015,06,30,10,37,24.50
2015,06,30,10,38,24.50
2015,06,30,10,39,24.50
2015,06,30,10,40,24.50
2015,06,30,10,41,24.50
2015,06,30,10,42,24.50
2015,06,30,10,43,24.50
2015,06,30,10,44,24.50
2015,06,30,10,45,24.50
2015,06,30,10,46,24.60
2015,06,30,10,47,24.60
2015,06,30,10,48,24.60
2015,06,30,10,49,24.70
2015,06,30,10,50,24.80
2015,06,30,10,51,24.80
2015,06,30,10,52,24.90
2015,06,30,10,53,24.90
2015,06,30,10,54,25.00
2015,06,30,10,55,25.10
2015,06,30,10,56,25.10
2015,06,30,10,57,25.20
2015,06,30,10,58,25.30
2015,06,30,10,59,25.30
2015,06,30,11,00,25.40
2015,06,30,11,01,25.50
2015,06,30,11,02,25.60
2015,06,30,11,03,25.60
2015,06,30,11,04,25.60
2015,06,30,11,05,25.60
2015,06,30,11,06,25.70
2015,06,30,11,07,25.70
2015,06,30,11,08,25.80
2015,06,30,11,09,25.80
2015,06,30,11,10,25.90
2015,06,30,11,11,25.90
2015,06,30,11,12,25.90
2015,06,30,11,13,25.90
2015,06,30,11,14,26.00
2015,06,30,11,15,26.10
2015,06,30,11,16,26.10
2015,06,30,11,17,26.10
2015,06,30,11,18,26.20
2015,06,30,11,19,26.20
2015,06,30,11,20,26.20
2015,06,30,11,21,26.20
2015,06,30,11,22,26.20
2015,06,30,11,23,26.30
2015,06,30,11,24,26.30
2015,06,30,11,25,26.30
2015,06,30,11,26,26.30
2015,06,30,11,27,26.30
2015,06,30,11,28,26.30
2015,06,30,11,29,26.40
2015,06,30,11,30,26.40
2015,06,30,11,31,26.50
2015,06,30,11,32,26.50
2015,06,30,11,33,26.50
2015,06,30,11,34,26.50
2015,06,30,11,35,26.50
2015,06,30,11,36,26.60
2015,06,30,11,37,26.60
2015,06,30,11,38,26.70
2015,06,30,11,39,26.70
2015,06,30,11,40,26.80
2015,06,30,11,41,26.80
2015,06,30,11,42,26.80
2015,06,30,11,43,26.80
2015,06,30,11,44,26.70
2015,06,30,11,45,26.70
2015,06,30,11,46,26.70
2015,06,30,11,47,26.70
2015,06,30,11,48,26.60
2015,06,30,11,49,26.50
2015,06,30,11,50,26.50
2015,06,30,11,51,26.50
2015,06,30,11,52,26.50
2015,06,30,11,53,26.60
2015,06,30,11,54,26.60
2015,06,30,11,55,26.70
2015,06,30,11,56,26.70
2015,06,30,11,57,26.70
2015,06,30,11,58,26.70
2015,06,30,11,59,26.80
2015,06,30,12,00,26.80
2015,06,30,12,01,26.80
2015,06,30,12,02,26.80
2015,06,30,12,03,26.80
2015,06,30,12,04,26.80
2015,06,30,12,05,26.80
2015,06,30,12,06,26.80
2015,06,30,12,07,26.80
2015,06,30,12,08,26.80
2015,06,30,12,09,26.90
2015,06,30,12,10,26.90
2015,06,30,12,11,26.90
2015,06,30,12,12,26.90
2015,06,30,12,13,26.90
2015,06,30,12,14,26.90
2015,06,30,12,15,27.00
2015,06,30,12,16,27.00
2015,06,30,12,17,27.00
2015,06,30,12,18,27.00
2015,06,30,12,19,27.00
2015,06,30,12,20,27.10
2015,06,30,12,21,27.10
2015,06,30,12,22,27.10
2015,06,30,12,23,27.10
2015,06,30,12,24,27.10
2015,06,30,12,25,27.10
2015,06,30,12,26,27.20
2015,06,30,12,27,27.20
2015,06,30,12,28,27.30
2015,06,30,12,29,27.30
2015,06,30,12,30,27.30
2015,06,30,12,31,27.30
2015,06,30,12,32,27.30
2015,06,30,12,33,27.30
2015,06,30,12,34,27.30
2015,06,30,12,35,27.30
2015,06,30,12,36,27.30
2015,06,30,12,37,27.30
2015,06,30,12,38,27.30
2015,06,30,12,39,27.30
2015,06,30,12,40,27.30
2015,06,30,12,41,27.20
2015,06,30,12,42,27.20
2015,06,30,12,43,27.30
2015,06,30,12,44,27.30
2015,06,30,12,45,27.30
2015,06,30,12,46,27.30
2015,06,30,12,47,27.30
2015,06,30,12,48,27.40
2015,06,30,12,49,27.40
2015,06,30,12,50,27.40
2015,06,30,12,51,27.40
2015,06,30,12,52,27.40
2015,06,30,12,53,27.40
2015,06,30,12,54,27.40
2015,06,30,12,55,27.40
2015,06,30,12,56,27.30
2015,06,30,12,57,27.30
2015,06,30,12,58,27.30
2015,06,30,12,59,27.20
2015,06,30,13,00,27.20
2015,06,30,13,01,27.20
2015,06,30,13,02,27.20
2015,06,30,13,03,27.20
2015,06,30,13,04,27.20
2015,06,30,13,05,27.20
2015,06,30,13,06,27.20
2015,06,30,13,07,27.30
2015,06,30,13,08,27.30
2015,06,30,13,09,27.30
2015,06,30,13,10,27.20
2015,06,30,13,11,27.20
2015,06,30,13,12,27.20
2015,06,30,13,13,27.30
2015,06,30,13,14,27.30
2015,06,30,13,15,27.20
2015,06,30,13,16,27.20
2015,06,30,13,17,27.20
2015,06,30,13,18,27.20
2015,06,30,13,19,27.20
2015,06,30,13,20,27.20
2015,06,30,13,21,27.10
2015,06,30,13,22,27.10
2015,06,30,13,23,27.10
2015,06,30,13,24,27.10
2015,06,30,13,25,27.10
2015,06,30,13,26,27.00
2015,06,30,13,27,27.00
2015,06,30,13,28,27.00
2015,06,30,13,29,27.00
2015,06,30,13,30,27.00
2015,06,30,13,31,26.90
2015,06,30,13,32,26.90
2015,06,30,13,33,26.90
2015,06,30,13,34,26.90
2015,06,30,13,35,26.90
2015,06,30,13,36,27.00
2015,06,30,13,37,27.00
2015,06,30,13,38,27.00
2015,06,30,13,39,27.10
2015,06,30,13,40,27.10
2015,06,30,13,41,27.10
2015,06,30,13,42,27.20
2015,06,30,13,43,27.20
2015,06,30,13,44,27.20
2015,06,30,13,45,27.20
2015,06,30,13,46,27.20
2015,06,30,13,47,27.20
2015,06,30,13,48,27.20
2015,06,30,13,49,27.30
2015,06,30,13,50,27.30
2015,06,30,13,51,27.40
2015,06,30,13,52,27.40
2015,06,30,13,53,27.40
2015,06,30,13,54,27.40
2015,06,30,13,55,27.40
2015,06,30,13,56,27.40
2015,06,30,13,57,27.40
2015,06,30,13,58,27.50
2015,06,30,13,59,27.60
2015,06,30,14,00,27.60
2015,06,30,14,01,27.70
2015,06,30,14,02,27.80
2015,06,30,14,03,27.90
2015,06,30,14,04,28.00
2015,06,30,14,05,28.10
2015,06,30,14,06,28.20
2015,06,30,14,07,28.30
2015,06,30,14,08,28.30
2015,06,30,14,09,28.40
2015,06,30,14,10,28.40
2015,06,30,14,11,28.50
2015,06,30,14,12,28.60
2015,06,30,14,13,28.70
2015,06,30,14,14,28.60
2015,06,30,14,15,28.60
2015,06,30,14,16,28.60
2015,06,30,14,17,28.70
2015,06,30,14,18,28.70
2015,06,30,14,19,28.70
2015,06,30,14,20,28.70
2015,06,30,14,21,28.70
2015,06,30,14,22,28.70
2015,06,30,14,23,28.70
2015,06,30,14,24,28.80
2015,06,30,14,25,28.80
2015,06,30,14,26,28.90
2015,06,30,14,27,28.90
2015,06,30,14,28,29.00
2015,06,30,14,29,29.10
2015,06,30,14,30,29.10
2015,06,30,14,31,29.10
2015,06,30,14,32,29.20
2015,06,30,14,33,29.20
2015,06,30,14,34,29.30
2015,06,30,14,35,29.30
2015,06,30,14,36,29.40
2015,06,30,14,37,29.40
2015,06,30,14,38,29.40
2015,06,30,14,39,29.40
2015,06,30,14,40,29.40
2015,06,30,14,41,29.40
2015,06,30,14,42,29.50
2015,06,30,14,43,29.60
2015,06,30,14,44,29.60
2015,06,30,14,45,29.70
2015,06,30,14,46,29.80
2015,06,30,14,47,29.80
2015,06,30,14,48,29.70
2015,06,30,14,49,29.70
2015,06,30,14,50,29.70
2015,06,30,14,51,29.70
2015,06,30,14,52,29.70
2015,06,30,14,53,29.70
2015,06,30,14,54,29.70
2015,06,30,14,55,29.80
2015,06,30,14,56,29.80
2015,06,30,14,57,29.80
2015,06,30,14,58,29.80
2015,06,30,14,59,29.80
2015,06,30,15,00,29.80
2015,06,30,15,01,29.80
2015,06,30,15,02,29.80
2015,06,30,15,03,29.80
2015,06,30,15,04,29.70
2015,06,30,15,05,29.70
2015,06,30,15,06,29.70
2015,06,30,15,07,29.60
2015,06,30,15,08,29.60
2015,06,30,15,09,29.50
2015,06,30,15,10,29.40
2015,06,30,15,11,29.20
2015,06,30,15,12,29.20
2015,06,30,15,13,29.20
2015,06,30,15,14,29.20
2015,06,30,15,15,29.10
2015,06,30,15,16,29.10
2015,06,30,15,17,29.00
2015,06,30,15,18,29.00
2015,06,30,15,19,29.00
2015,06,30,15,20,29.10
2015,06,30,15,21,29.10
2015,06,30,15,22,29.10
2015,06,30,15,23,29.10
2015,06,30,15,24,29.10
2015,06,30,15,25,29.20
2015,06,30,15,26,29.20
2015,06,30,15,27,29.20
2015,06,30,15,28,29.30
2015,06,30,15,29,29.30
2015,06,30,15,30,29.40
2015,06,30,15,31,29.40
2015,06,30,15,32,29.50
2015,06,30,15,33,29.50
2015,06,30,15,34,29.60
2015,06,30,15,35,29.60
2015,06,30,15,36,29.60
2015,06,30,15,37,29.60
2015,06,30,15,38,29.60
2015,06,30,15,39,29.60
2015,06,30,15,40,29.50
2015,06,30,15,41,29.40
2015,06,30,15,42,29.40
2015,06,30,15,43,29.40
2015,06,30,15,44,29.40
2015,06,30,15,45,29.40
2015,06,30,15,46,29.50
2015,06,30,15,47,29.50
2015,06,30,15,48,29.50
2015,06,30,15,49,29.50
2015,06,30,15,50,29.50
2015,06,30,15,51,29.60
2015,06,30,15,52,29.50
2015,06,30,15,53,29.50
2015,06,30,15,54,29.50
2015,06,30,15,55,29.50
2015,06,30,15,56,29.50
2015,06,30,15,57,29.40
2015,06,30,15,58,29.40
2015,06,30,15,59,29.40
2015,06,30,16,00,29.40
2015,06,30,16,01,29.50
2015,06,30,16,02,29.50
2015,06,30,16,03,29.60
2015,06,30,16,04,29.60
2015,06,30,16,05,29.70
2015,06,30,16,06,29.70
2015,06,30,16,07,29.80
2015,06,30,16,08,29.80
2015,06,30,16,09,29.90
2015,06,30,16,10,30.00
2015,06,30,16,11,30.10
2015,06,30,16,12,30.10
2015,06,30,16,13,30.20
2015,06,30,16,14,30.20
2015,06,30,16,15,30.20
2015,06,30,16,16,30.20
2015,06,30,16,17,30.20
2015,06,30,16,18,30.10
2015,06,30,16,19,30.00
2015,06,30,16,20,30.00
2015,06,30,16,21,30.00
2015,06,30,16,22,29.90
2015,06,30,16,23,29.80
2015,06,30,16,24,29.80
2015,06,30,16,25,29.70
2015,06,30,16,26,29.60
2015,06,30,16,27,29.60
2015,06,30,16,28,29.50
2015,06,30,16,29,29.50
2015,06,30,16,30,29.40
2015,06,30,16,31,29.40
2015,06,30,16,32,29.40
2015,06,30,16,33,29.30
2015,06,30,16,34,29.30
2015,06,30,16,35,29.30
2015,06,30,16,36,29.20
2015,06,30,16,37,29.20
2015,06,30,16,38,29.10
2015,06,30,16,39,29.00
2015,06,30,16,40,28.90
2015,06,30,16,41,28.80
2015,06,30,16,42,28.70
2015,06,30,16,43,28.70
2015,06,30,16,44,28.70
2015,06,30,16,45,28.70
2015,06,30,16,46,28.70
2015,06,30,16,47,28.70
2015,06,30,16,48,28.70
2015,06,30,16,49,28.70
2015,06,30,16,50,28.70
2015,06,30,16,51,28.70
2015,06,30,16,52,28.70
2015,06,30,16,53,28.70
2015,06,30,16,54,28.70
2015,06,30,16,55,28.70
2015,06,30,16,56,28.80
2015,06,30,16,57,28.80
2015,06,30,16,58,28.80
2015,06,30,16,59,28.80
2015,06,30,17,00,28.80
2015,06,30,17,01,28.80
2015,06,30,17,02,28.80
2015,06,30,17,03,28.80
2015,06,30,17,04,28.80
2015,06,30,17,05,28.80
2015,06,30,17,06,28.80
2015,06,30,17,07,28.90
2015,06,30,17,08,29.00
2015,06,30,17,09,29.10
2015,06,30,17,10,29.20
2015,06,30,17,11,29.20
2015,06,30,17,12,29.30
2015,06,30,17,13,29.40
2015,06,30,17,14,29.50
2015,06,30,17,15,29.60
2015,06,30,17,16,29.60
2015,06,30,17,17,29.70
2015,06,30,17,18,29.70
2015,06,30,17,19,29.80